FW4236 Weather Reports


Display with metric or nautical units.
time (UTC)temp
F
wind
direction
speed
MPH
gust
MPH
rain 1hr
in
rain 24hr
in
rain mn
in
humidity
%
barometer
mb
20260506231519 78 244 3.0 9.0 0.00 0.00 0.00 48 969.8
20260506230016 78 222 2.0 7.0 0.00 0.00 0.00 48 970.0
20260506224514 78 242 2.0 8.0 0.00 0.00 0.00 48 970.0
20260506223012 79 200 3.0 8.0 0.00 0.00 0.00 47 970.1
20260506221509 79 248 2.0 9.0 0.00 0.00 0.00 48 970.3
20260506220015 79 137 3.0 11.0 0.00 0.00 0.00 47 970.5
20260506214505 79 79 1.0 8.0 0.00 0.00 0.00 46 970.8
20260506213002 79 188 4.0 8.0 0.00 0.00 0.00 46 971.0
20260506211610 79 234 2.0 9.0 0.00 0.00 0.00 46 971.0
20260506210056 78 254 1.0 5.0 0.00 0.00 0.00 45 971.0
20260506204552 77 220 1.0 9.0 0.00 0.00 0.00 45 971.2
20260506203052 78 270 5.0 9.0 0.00 0.00 0.00 44 971.2
20260506201547 76 140 1.0 7.0 0.00 0.00 0.00 48 971.4
20260506200047 74 245 1.0 8.0 0.00 0.00 0.00 48 971.6
20260506194548 74 236 3.0 10.0 0.00 0.00 0.00 47 971.8
20260506193042 75 151 3.0 8.0 0.00 0.00 0.00 49 972.0
20260506191538 73 242 3.0 9.0 0.00 0.00 0.00 51 972.1
20260506190036 74 277 4.0 7.0 0.00 0.00 0.00 50 972.2
20260506184533 72 275 3.0 6.0 0.00 0.00 0.00 52 972.2
20260506183034 71 27 1.0 9.0 0.00 0.00 0.00 53 972.3
20260506181526 70 253 0.0 5.0 0.00 0.00 0.00 55 972.4
20260506180022 69 256 2.0 8.0 0.00 0.00 0.00 56 972.4
20260506174518 67 253 1.0 7.0 0.00 0.00 0.00 59 972.5
20260506173020 66 169 1.0 5.0 0.00 0.00 0.00 59 972.5
20260506171511 65 239 2.0 7.0 0.00 0.00 0.00 61 972.5
20260506170011 64 238 1.0 5.0 0.00 0.00 0.00 62 972.4
20260506164505 64 170 0.0 4.0 0.00 0.00 0.00 64 972.3
20260506163001 61 227 1.0 5.0 0.00 0.00 0.00 67 972.4
20260506161557 59 229 0.0 4.0 0.00 0.00 0.00 72 972.5
20260506160106 58 238 3.0 5.0 0.00 0.00 0.00 73 972.5
20260506154552 57 229 1.0 5.0 0.00 0.00 0.00 75 972.5
20260506153043 56 233 0.0 4.0 0.00 0.00 0.00 77 972.6
20260506151541 56 225 0.0 3.0 0.00 0.00 0.00 77 972.7
20260506150039 56 233 0.0 3.0 0.00 0.00 0.00 76 972.6
20260506144536 56 113 0.0 2.0 0.00 0.00 0.00 79 972.6
20260506143036 54 111 1.0 2.0 0.00 0.00 0.00 82 972.6
20260506141528 52 63 0.0 2.0 0.00 0.00 0.00 85 972.6
20260506140023 50 10 0.0 0.0 0.00 0.00 0.00 85 972.4
20260506134520 50 10 0.0 2.0 0.00 0.00 0.00 86 972.1
20260506133017 49 54 1.0 3.0 0.00 0.00 0.00 85 972.0
20260506131517 49 44 0.0 3.0 0.00 0.00 0.00 84 972.0
20260506130017 49 36 2.0 4.0 0.00 0.00 0.00 85 972.0
20260506124512 49 37 1.0 3.0 0.00 0.00 0.00 85 971.6
20260506123011 49 48 1.0 3.0 0.00 0.00 0.00 84 971.6
20260506121510 49 29 2.0 4.0 0.00 0.00 0.00 84 971.6
20260506120009 49 39 1.0 3.0 0.00 0.00 0.00 84 971.4
20260506114510 50 39 0.0 5.0 0.00 0.00 0.00 84 971.5
20260506113009 50 31 2.0 5.0 0.00 0.00 0.00 85 971.5
20260506111506 50 36 2.0 6.0 0.00 0.00 0.00 86 971.5
20260506110006 49 38 2.0 3.0 0.00 0.00 0.00 87 971.3
20260506104504 49 30 2.0 4.0 0.00 0.00 0.00 87 971.5
20260506103005 50 40 1.0 3.0 0.00 0.00 0.00 86 971.5
20260506101502 50 53 1.0 3.0 0.00 0.00 0.00 86 971.5
20260506100100 49 31 2.0 4.0 0.00 0.00 0.00 87 971.5
20260506094558 49 178 0.0 0.0 0.00 0.00 0.00 88 971.5
20260506093057 49 185 0.0 2.0 0.00 0.00 0.00 89 971.7
20260506091555 49 185 0.0 0.0 0.00 0.00 0.00 88 971.7
20260506090053 49 186 0.0 0.0 0.00 0.00 0.00 88 971.8
20260506084552 49 186 0.0 0.0 0.00 0.00 0.00 87 972.0
20260506083051 50 23 0.0 0.0 0.00 0.00 0.00 86 972.0
20260506081552 50 28 0.0 0.0 0.00 0.00 0.00 87 972.0
20260506073053 50 24 0.0 0.0 0.00 0.00 0.00 85 972.1
20260506071551 50 23 0.0 0.0 0.00 0.00 0.00 84 972.1
20260506070104 50 25 0.0 0.0 0.00 0.00 0.00 84 971.8
20260506061539 51 28 0.0 0.0 0.00 0.00 0.00 82 971.4
20260506044540 53 17 0.0 0.0 0.00 0.00 0.00 77 970.7
20260506043030 53 19 0.0 0.0 0.00 0.00 0.00 76 970.6
20260506041528 54 21 0.0 0.0 0.00 0.00 0.00 74 970.4
20260506040027 54 19 0.0 0.0 0.00 0.00 0.00 73 970.2
20260506034525 55 22 0.0 0.0 0.00 0.00 0.00 71 969.9
20260506033024 55 27 0.0 1.0 0.00 0.00 0.00 71 969.9
20260506031525 56 360 0.0 1.0 0.00 0.00 0.00 69 969.7
20260506030022 57 360 0.0 1.0 0.00 0.00 0.00 67 969.4
20260506024528 59 16 0.0 2.0 0.00 0.00 0.00 65 969.2
20260506023020 59 14 0.0 3.0 0.00 0.00 0.00 65 969.0
20260506021518 60 15 1.0 4.0 0.00 0.00 0.00 64 969.0
20260506020018 60 17 0.0 2.0 0.00 0.00 0.00 62 968.8
20260506014517 61 13 1.0 5.0 0.00 0.00 0.00 60 968.8
20260506013022 61 12 2.0 5.0 0.00 0.00 0.00 60 968.7
20260506011517 61 14 0.0 4.0 0.00 0.00 0.00 59 968.7
20260506010015 62 360 1.0 6.0 0.00 0.00 0.00 59 968.6
20260506004514 63 360 2.0 8.0 0.00 0.00 0.00 58 968.5
20260506003014 63 228 3.0 10.0 0.00 0.00 0.00 57 968.5
20260506001513 63 183 1.0 5.0 0.00 0.00 0.00 59 968.3
20260506000011 61 239 0.0 8.0 0.00 0.00 0.00 65 968.3
20260505234522 60 15 0.0 3.0 0.00 0.00 0.00 67 968.2
20260505233016 61 15 0.0 4.0 0.00 0.00 0.00 67 968.4